User: anonymous   Login
Location: Unspecified
(0.0000°N, 0.0000°E)
Time: 03:57:53
(UTC+00:00)
Language:

Tiros 10 - Orbit

View from above orbital plane
View from above orbital plane
View from above satellite
View from above satellite

Ground track
Ground track

The orbit data is extracted from the following two-line orbital elements,

1 01430U 65051A   16178.43868120  .00000018  00000-0  18529-4 0  9998
2 01430  98.0998 344.8816 0055302 251.8857 107.6305 14.40149739671893
Epoch (UTC): 26 June 2016 10:31:42
Eccentricity: 0.0055302
inclination: 98.0998°
perigee height: 718 km
apogee height: 797 km
right ascension of ascending node: 344.8816°
argument of perigee: 251.8857°
revolutions per day: 14.40149739
mean anomaly at epoch: 107.6305°
orbit number at epoch: 67189

The dashed part of the orbit path shows where the satellite is in the earth's shadow,  

DLR